Weather History for Flagstaff, AZ

Change the Weather History Date:

Sunday, November 10, 2013

  Actual Average Record
Temperature  
Mean Temperature 43 °F 39 °F  
Max Temperature 62 °F 53 °F 71 °F (1973)
Min Temperature 23 °F 25 °F 5 °F (1946)
Degree Days  
Heating Degree Days 22 26  
Month to date heating degree days 259 248  
Since 1 July heating degree days 1192 1131  
Cooling Degree Days 0 0  
Month to date cooling degree days 0 0  
Year to date cooling degree days 148 117  
Moisture  
Dew Point 21 °F    
Average Humidity 52    
Maximum Humidity 81    
Minimum Humidity 23    
Precipitation  
Precipitation 0.00 in 0.06 in 1.90 in (1923)
Month to date precipitation 0.00 0.57  
Year to date precipitation 21.22 18.80  
Snow  
Snow 0.00 in 0.20 in 6.20 in (1982)
Month to date snowfall 0.0 2.2  
Since 1 July snowfall 0.6 3.7  
Snow Depth 0.00 in    
Sea Level Pressure  
Sea Level Pressure 30.25 in    
Wind  
Wind Speed 1 mph (ESE)    
Max Wind Speed 8 mph    
Max Gust Speed 12 mph    
Visibility 10 miles    
Events      
T = Trace of Precipitation, MM = Missing Value Source: NWS Daily Summary

Daily Weather History Graph

Daily Weather History Graph

Search for Another Location

Airport:

Trip Planner

Search our weather history database for the weather conditions in past years. The results will help you decide how hot, cold, wet, or windy it might be!

Date:

Astronomy

Nov. 10, 2013 Rise Set
Actual Time 6:56 AM MST 5:24 PM MST
Civil Twilight 6:30 AM MST 5:50 PM MST
Nautical Twilight 5:59 AM MST 6:21 PM MST
Astronomical Twilight 5:29 AM MST 6:51 PM MST
Moon 1:17 PM MST (11/10) No Moon Set
Length of Visible Light 11h 20m
Length of Day
10h 27m
First Quarter, 56% of the Moon is Illuminated
Nov 10
First Quarter
Nov 17
Full
Nov 25
Last Quarter
Dec 2
New
Dec 9
First Quarter

Hourly Weather History & Observations

Time (MST) Temp. Dew Point Humidity Pressure Visibility Wind Dir Wind Speed Gust Speed Precip Events Conditions
12:57 AM 27.0 °F 17.1 °F 66% 30.19 in 10.0 mi Calm Calm - N/A   Clear
1:57 AM 26.1 °F 17.1 °F 69% 30.19 in 10.0 mi Calm Calm - N/A   Clear
2:57 AM 26.1 °F 17.1 °F 69% 30.19 in 10.0 mi Calm Calm - N/A   Clear
3:57 AM 25.0 °F 17.1 °F 72% 30.20 in 10.0 mi Calm Calm - N/A   Clear
4:57 AM 24.1 °F 17.1 °F 75% 30.23 in 10.0 mi Calm Calm - N/A   Clear
5:57 AM 23.0 °F 17.1 °F 78% 30.28 in 10.0 mi Calm Calm - N/A   Clear
6:57 AM 24.1 °F 17.1 °F 75% 30.32 in 10.0 mi Calm Calm - N/A   Clear
7:57 AM 28.9 °F 19.0 °F 67% 30.34 in 10.0 mi Calm Calm - N/A   Clear
8:57 AM 42.1 °F 21.9 °F 45% 30.31 in 10.0 mi Calm Calm - N/A   Clear
9:57 AM 46.9 °F 24.1 °F 41% 30.29 in 10.0 mi Calm Calm - N/A   Clear
10:57 AM 53.1 °F 24.1 °F 32% 30.27 in 10.0 mi ESE 3.5 mph - N/A   Clear
11:57 AM 57.9 °F 23.0 °F 26% 30.23 in 10.0 mi Variable 5.8 mph - N/A   Clear
12:57 PM 59.0 °F 21.9 °F 24% 30.20 in 10.0 mi Calm Calm - N/A   Clear
1:57 PM 60.1 °F 23.0 °F 24% 30.18 in 10.0 mi Calm Calm - N/A   Clear
2:57 PM 60.1 °F 23.0 °F 24% 30.18 in 10.0 mi Variable 3.5 mph - N/A   Clear
3:57 PM 59.0 °F 26.1 °F 28% 30.20 in 10.0 mi Variable 4.6 mph - N/A   Clear
4:57 PM 55.9 °F 24.1 °F 29% 30.22 in 10.0 mi ESE 3.5 mph - N/A   Clear
5:57 PM 48.0 °F 25.0 °F 41% 30.27 in 10.0 mi Calm Calm - N/A   Clear
6:57 PM 43.0 °F 23.0 °F 45% 30.31 in 10.0 mi Calm Calm - N/A   Clear
7:57 PM 37.9 °F 21.9 °F 53% 30.31 in 10.0 mi Calm Calm - N/A   Clear
8:57 PM 34.0 °F 21.0 °F 59% 30.28 in 10.0 mi Calm Calm - N/A   Clear
9:57 PM 32.0 °F 19.9 °F 61% 30.26 in 10.0 mi Calm Calm - N/A   Clear
10:57 PM 28.9 °F 19.0 °F 67% 30.25 in 10.0 mi Calm Calm - N/A   Clear
11:57 PM 28.0 °F 19.0 °F 69% 30.22 in 10.0 mi Calm Calm - N/A   Clear